FW2218 Weather Reports


Display with metric or nautical units.
time (UTC)temp
F
wind
direction
speed
MPH
gust
MPH
rain 1hr
in
rain 24hr
in
rain mn
in
humidity
%
barometer
mb
20260902021533 68 270 10.0 21.0 0.00 0.00 0.00 55 1003.3
20260902020030 68 275 13.0 25.0 0.00 0.00 0.00 54 1002.9
20260902014532 68 276 13.0 23.0 0.00 0.00 0.00 54 1002.8
20260902011531 69 277 14.0 26.0 0.00 0.00 0.00 54 1002.3
20260902004532 71 274 14.0 28.0 0.00 0.00 0.00 52 1002.0
20260902003034 70 269 13.0 24.0 0.00 0.00 0.00 52 1002.2
20260902001542 71 273 15.0 25.0 0.00 0.00 0.00 51 1002.2
20260902000108 70 273 13.0 25.0 0.00 0.00 0.00 52 1002.2
20260901234531 71 275 14.0 25.0 0.00 0.00 0.00 52 1002.2
20260901233106 71 272 13.0 23.0 0.00 0.00 0.00 52 1002.3
20260901231532 71 277 13.0 24.0 0.00 0.00 0.00 53 1002.4
20260901230031 70 273 13.0 23.0 0.00 0.00 0.00 52 1002.3
20260901224532 71 278 14.0 27.0 0.00 0.00 0.00 50 1002.2
20260901223030 73 272 13.0 24.0 0.00 0.00 0.00 49 1002.2
20260901221526 74 271 13.0 24.0 0.00 0.00 0.00 48 1002.2
20260901214531 75 278 12.0 26.0 0.00 0.00 0.00 47 1002.2
20260901213036 75 279 10.0 19.0 0.00 0.00 0.00 47 1002.3
20260901211532 75 278 11.0 21.0 0.00 0.00 0.00 48 1002.2
20260901210030 75 276 11.0 22.0 0.00 0.00 0.00 48 1002.4
20260901204529 75 279 12.0 21.0 0.00 0.00 0.00 47 1002.6
20260901203104 75 287 10.0 22.0 0.00 0.00 0.00 48 1002.6
20260901201533 75 291 8.0 17.0 0.00 0.00 0.00 47 1002.6
20260901194531 75 283 7.0 16.0 0.00 0.00 0.00 48 1003.0
20260901193030 75 288 7.0 14.0 0.00 0.00 0.00 48 1003.2
20260901191533 74 296 7.0 13.0 0.00 0.00 0.00 50 1003.5
20260901190031 74 293 8.0 18.0 0.00 0.00 0.00 49 1003.6
20260901183030 71 282 6.0 14.0 0.00 0.00 0.00 53 1003.9
20260901181526 70 278 8.0 15.0 0.00 0.00 0.00 54 1004.1
20260901180103 70 285 8.0 15.0 0.00 0.00 0.00 55 1004.1
20260901173032 68 278 8.0 18.0 0.00 0.00 0.00 58 1004.0
20260901171531 68 278 7.0 14.0 0.00 0.00 0.00 60 1004.1
20260901170037 67 282 5.0 10.0 0.00 0.00 0.00 60 1004.1
20260901164608 66 271 6.0 12.0 0.00 0.00 0.00 60 1004.1
20260901163031 67 261 6.0 13.0 0.00 0.00 0.00 60 1004.2
20260901161533 66 276 5.0 9.0 0.00 0.00 0.00 63 1004.1
20260901160105 65 277 5.0 10.0 0.00 0.00 0.00 64 1004.1
20260901154530 65 268 5.0 11.0 0.00 0.00 0.00 64 1004.0
20260901153032 65 263 5.0 12.0 0.00 0.00 0.00 64 1004.0
20260901150028 64 270 5.0 13.0 0.00 0.00 0.00 66 1003.8
20260901144539 64 260 5.0 12.0 0.00 0.00 0.00 66 1003.8
20260901141537 63 271 5.0 11.0 0.00 0.00 0.00 66 1003.6
20260901140032 64 274 6.0 13.0 0.00 0.00 0.00 66 1003.4
20260901134531 64 279 6.0 14.0 0.00 0.00 0.00 65 1003.2
20260901133029 64 271 6.0 10.0 0.00 0.00 0.00 65 1003.1
20260901131604 64 264 5.0 8.0 0.00 0.00 0.00 65 1003.0
20260901123030 66 260 5.0 12.0 0.00 0.00 0.00 62 1002.6
20260901121533 66 259 5.0 11.0 0.00 0.00 0.00 61 1002.6
20260901120030 66 256 7.0 14.0 0.00 0.00 0.00 61 1002.7
20260901114607 65 253 4.0 12.0 0.00 0.00 0.00 62 1002.7
20260901113030 65 255 4.0 10.0 0.00 0.00 0.00 61 1002.5
20260901110031 65 269 2.0 11.0 0.00 0.00 0.00 64 1002.5
20260901104531 65 301 2.0 6.0 0.00 0.00 0.00 63 1002.4
20260901103032 65 293 1.0 5.0 0.00 0.00 0.00 61 1002.4
20260901101530 65 276 3.0 6.0 0.00 0.00 0.00 59 1002.4
20260901100029 65 259 4.0 8.0 0.00 0.00 0.00 57 1002.5
20260901093029 65 235 2.0 7.0 0.00 0.00 0.00 53 1002.4
20260901091530 65 227 0.0 5.0 0.00 0.00 0.00 51 1002.4
20260901090107 66 91 1.0 4.0 0.00 0.00 0.00 49 1002.5
20260901084607 66 246 0.0 4.0 0.00 0.00 0.00 48 1002.5
20260901083030 65 32 0.0 2.0 0.00 0.00 0.00 46 1002.7
20260901081531 65 22 0.0 2.0 0.00 0.00 0.00 46 1002.7
20260901080107 65 56 0.0 4.0 0.00 0.00 0.00 47 1002.6
20260901074543 65 112 2.0 3.0 0.00 0.00 0.00 46 1002.6
20260901073028 65 112 0.0 3.0 0.00 0.00 0.00 46 1002.5
20260901071606 65 112 0.0 2.0 0.00 0.00 0.00 46 1002.5
20260901070104 66 112 0.0 1.0 0.00 0.00 0.00 44 1002.5
20260901064531 67 112 0.0 1.0 0.00 0.00 0.00 42 1002.5
20260901063030 67 112 0.0 1.0 0.00 0.00 0.00 42 1002.6
20260901061531 67 112 0.0 1.0 0.00 0.00 0.00 41 1002.6
20260901060109 67 112 0.0 2.0 0.00 0.00 0.00 42 1002.6
20260901051538 69 145 0.0 2.0 0.00 0.00 0.00 41 1002.7
20260901050112 70 157 0.0 2.0 0.00 0.00 0.00 42 1002.6
20260901044531 70 157 0.0 0.0 0.00 0.00 0.00 42 1002.6
20260901043146 71 157 0.0 0.0 0.00 0.00 0.00 40 1002.5
20260901041530 72 175 1.0 2.0 0.00 0.00 0.00 36 1002.4
20260901040030 74 157 0.0 2.0 0.00 0.00 0.00 34 1002.2
20260901034530 74 157 2.0 4.0 0.00 0.00 0.00 33 1002.0
20260901033033 74 199 1.0 3.0 0.00 0.00 0.00 36 1001.8
20260901031530 77 221 1.0 4.0 0.00 0.00 0.00 31 1001.7
20260901024532 78 114 3.0 5.0 0.00 0.00 0.00 29 1001.4